Location: El Azufral
(10.3513°N, 67.1528°W)
Time: 19:39:30
(UTC+00:00)

Centaur D-1AR AC-36 - Pass Details

Date: 13 June 2024
Orbit: 527 x 36345 km, 22.2° (Epoch: 24 July)

Event Time Altitude Azimuth Distance (km) Brightness Sun altitude
Rises 22:43:55 0° 300° (WNW) 3,167 8.1 0.7°
Reaches altitude 10° 22:45:27 10° 307° (NW) 2,583 6.6 0.3°
Maximum altitude 22:50:55 49° 25° (NNE) 2,194 4.4 -0.9°
Enters shadow 23:57:14 - 102° (ESE) 21,486 8.7 -15.6°
Exits shadow 00:14:18 - 104° (ESE) 24,660 9.0 -19.3°
Drops below altitude 10° 08:40:30 10° 116° (ESE) 14,429 8.9 -19.9°
Sets 08:50:46 0° 110° (ESE) 12,834 8.9 -17.7°
